Flag for Germany Weather past 2 weeks in Melsungen, Hesse, Germany

Now
62 °F

Thunderstorms. Low clouds.


Feels Like: 62 °F
Forecast: 53 / 64 °F
Wind: 2 mph from Southwest

Location: Fritzlar

Current Time: Sep 20, 2014 at 6:45:40 PM

Latest Report: Sep 20, 2014 at 3:00 PM


Visibility: 9 mi

Pressure: 29.97 "Hg

Humidity: 90%

Dew point: 58 °F

Location of MelsungenLocation

Historic Weather in Melsungen — Graph

°F

Melsungen temperature yesterday

Maximum temperature yesterday: 72 °F (at 4:00 PM)
Minimum temperature yesterday: 57 °F (at 7:00 AM)
Average temperature yesterday: 63 °F

Past Weeks' High & Low Weather Summary

 TemperatureHumidityPressure
High78 °F (Sep 6, 5:00 PM)99% (Sep 6, 8:00 AM)30.22 "Hg (Sep 6, 8:00 AM)
Low47 °F (Sep 9, 8:00 AM)51% (Sep 6, 5:00 PM)29.84 "Hg (Sep 6, 5:00 PM)
Average61 °F84%30.02 "Hg
* Reported Sep 5 3:00 PM — Sep 20 3:00 PM, Melsungen, Weather by CustomWeather, © 2014

Note: Actual official high and low records may vary slightly from our data, if they occured in-between our weather recording intervals... More about our weather records

Advertising

Melsungen weather history for previous 24 hours

 ConditionsComfort  
Time TempWeatherWind HumidityBarometerVisibility
3:00 PM
Sep 20
62 °FThunderstorms. Low clouds.2 mph90%29.97 "Hg9 mi
2:00 PM64 °FThundershowers. Low clouds.3 mph91%29.97 "Hg4 mi
1:00 PM65 °FThunderstorms. Low clouds.2 mph91%29.96 "Hg4 mi
12:00 PM64 °FFog.N/A93%29.96 "Hg3 mi
11:00 AM62 °FFog.1 mph98%29.96 "Hg2 mi
10:00 AM60 °FFog.2 mph99%29.96 "Hg2 mi
9:00 AM59 °FFog.2 mph99%29.96 "Hg0 mi
8:00 AM58 °FFog.2 mph99%29.96 "Hg0 mi
7:00 AM58 °FFog.1 mph99%29.95 "Hg1 mi
6:00 AM58 °FFog.1 mph98%29.94 "Hg0 mi
5:00 AM58 °FFog.2 mph98%29.94 "Hg0 mi
4:00 AM58 °FFog.N/A98%29.94 "Hg0 mi
3:00 AM57 °FFog.1 mph97%29.95 "Hg0 mi
2:00 AM58 °FPassing clouds.1 mph97%29.95 "Hg7 mi
1:00 AM60 °FPassing clouds.N/A97%29.94 "Hg7 mi
12:00 AM59 °FPassing clouds.1 mph97%29.94 "Hg7 mi
10:00 PM
Sep 19
61 °FPassing clouds.N/A97%29.93 "Hg12 mi
9:00 PM62 °FPassing clouds.N/A97%29.92 "Hg12 mi
8:00 PM66 °FPassing clouds.1 mph89%29.91 "Hg12 mi
7:00 PM69 °FOvercast.3 mph79%29.89 "Hg16 mi
6:00 PM71 °FOvercast.3 mph72%29.89 "Hg16 mi
Weather by CustomWeather, © 2014

See weather overviewHow to use our weather pages